Vorticity
nan nan nan nan nan nan nan nan nan nan nan nan nan nan nan nan nan nan nan nan nan nan nan nan nan nan nan nan nan nan nan nan nan nan nan nan nan nan nan nan nan nan nan
nan 7 8 6 6 6 5 5 5 5 5 5 4 4 4 4 4 4 4 4 4 5 5 4 4 4 4 4 5 5 6 6 5 5 6 1 1 7 10 6 4 6 nan
nan 6 8 7 7 7 6 5 5 5 4 5 5 5 4 4 4 4 4 4 4 4 4 5 4 4 4 4 5 5 6 6 6 4 2 2 4 9 10 5 5 6 nan
nan 5 8 8 6 7 7 6 6 6 5 5 5 5 5 4 4 5 4 4 4 5 4 4 4 4 4 3 5 5 4 5 5 5 3 5 7 5 5 4 4 4 nan
nan 7 8 7 6 7 7 7 6 6 6 6 6 5 6 5 5 5 5 4 5 4 4 4 4 4 4 4 3 4 4 3 4 7 7 6 8 7 4 3 4 4 nan
nan 7 8 7 7 7 7 7 7 6 7 6 6 6 6 5 6 5 5 4 5 5 5 6 5 3 3 4 3 4 3 4 7 7 8 13 12 7 4 3 5 4 nan
nan 7 8 7 7 6 7 7 7 7 7 7 6 6 6 6 6 6 5 5 5 6 5 6 6 5 4 3 3 3 4 5 6 6 8 12 12 8 6 4 5 5 nan
nan 6 7 7 6 6 6 7 7 7 7 7 7 6 6 7 6 6 6 6 6 5 5 5 5 5 4 4 4 3 4 6 6 6 6 12 10 9 7 4 5 5 nan
nan 6 6 6 7 6 5 7 7 7 7 7 7 7 7 7 6 6 5 5 5 5 5 4 5 5 5 5 4 4 4 5 8 7 7 12 12 9 6 5 5 5 nan
nan 6 6 6 6 6 8 6 7 7 7 7 7 7 7 6 5 7 6 4 4 4 5 5 5 5 6 6 5 4 4 7 8 8 8 4 12 14 9 8 6 5 nan
nan 5 6 6 5 6 8 9 7 5 5 5 5 5 5 8 8 8 11 11 9 8 7 5 4 4 5 7 8 8 8 7 7 7 7 5 11 14 9 6 7 9 nan
nan 5 5 5 6 6 6 6 6 4 4 6 7 6 6 8 8 6 7 9 9 9 8 8 8 7 7 8 8 10 9 6 8 9 9 15 16 13 10 11 10 10 nan
nan 6 8 6 6 5 6 5 6 7 8 8 7 7 6 5 7 6 6 6 7 8 9 10 10 10 9 7 10 11 9 9 9 9 11 19 17 12 10 11 12 11 nan
nan 6 7 6 6 5 6 7 7 7 7 8 8 7 6 6 7 7 7 7 6 7 8 9 11 11 9 9 11 11 9 9 10 7 6 12 16 11 8 8 8 9 nan
nan 7 8 6 6 7 7 7 8 8 8 8 8 8 8 7 7 7 7 7 7 7 7 7 7 8 8 9 10 9 8 7 10 10 6 5 10 9 10 8 8 7 nan
nan 6 5 7 8 9 9 9 8 8 8 7 7 8 10 10 7 8 7 8 7 8 9 9 8 7 7 8 9 8 8 9 10 9 7 3 5 7 6 7 7 5 nan
nan 7 6 5 7 9 9 8 8 8 8 8 7 7 9 10 10 10 8 8 7 8 8 7 7 9 8 9 7 7 8 10 10 7 6 5 1 2 4 5 5 5 nan
nan 8 5 6 7 7 6 7 8 9 8 7 7 7 7 9 10 9 9 8 8 8 7 7 7 8 7 7 6 7 8 10 9 7 8 7 6 1 1 7 7 6 nan
nan 7 7 7 7 6 5 7 8 8 7 7 7 7 7 9 11 8 7 8 8 7 8 7 9 8 6 7 8 8 10 10 7 7 8 9 7 8 4 1 -0 2 nan
nan 8 6 7 6 3 3 5 6 6 7 8 8 7 7 9 9 8 7 9 9 7 7 8 7 9 9 6 7 7 10 10 8 8 7 8 9 9 8 2 -0 -3 nan
nan 9 6 5 4 4 5 5 6 7 6 7 8 8 6 8 9 8 8 8 9 9 8 7 8 6 7 9 7 6 7 7 9 9 9 10 9 6 8 8 9 6 nan
nan 4 7 7 5 3 5 6 10 9 9 9 8 7 6 7 10 11 8 8 8 7 8 9 8 7 7 9 8 8 7 3 5 8 11 9 7 7 6 8 10 8 nan
nan 4 6 8 7 7 7 5 6 7 10 9 9 8 8 7 9 11 9 9 8 8 8 8 9 8 6 7 11 10 9 9 4 3 8 9 7 8 6 6 6 8 nan
nan 10 11 9 8 8 6 7 8 6 7 8 8 8 9 8 9 9 9 10 9 8 8 9 10 10 10 8 5 7 11 13 9 6 3 6 8 7 8 7 7 6 nan
nan 10 9 8 6 8 8 7 6 7 8 10 11 9 6 7 8 9 10 9 8 8 9 10 10 10 10 10 8 7 6 8 11 11 8 5 5 6 9 8 8 6 nan
nan nan nan nan nan nan nan nan nan nan nan nan nan nan nan nan nan nan nan nan nan nan nan nan nan nan nan nan nan nan nan nan nan nan nan nan nan nan nan nan nan nan nan
CAPE
194 809 1366 1751 1775 1697 1538 1523 1594 1840 2264 2380 2465 2641 2470 2448 2575 2530 2393 2354 2624 2605 2074 1865 1642 1496 1514 1691 1767 1957 2134 2088 2111 2247 2168 2155 1637 1406 1432 1711 1574 1678 2105
402 870 1160 1565 1783 1858 1781 1627 1642 1961 2392 2421 2473 2642 2651 2472 2436 2490 2508 2443 2522 2589 2090 1906 1605 1392 1331 1488 1834 1948 1997 1945 1817 1984 2217 2035 1931 1605 1640 1616 1752 2054 2198
381 806 989 1340 1734 1922 1946 1826 1931 2283 2509 2461 2447 2581 2702 2676 2580 2507 2462 2510 2566 2623 2183 1992 1665 1373 1220 1363 1482 1598 1716 1605 1448 1740 1621 1158 1618 1918 1541 1962 2169 2285 2101
384 601 773 1240 1653 1873 1928 1925 2057 2502 2578 2542 2436 2518 2648 2685 2656 2621 2551 2610 2727 2710 2286 2116 1770 1380 1216 1048 1059 1224 1308 1245 1211 1361 922 1026 1052 1945 1462 1766 2159 2039 2017
202 498 842 1034 1416 1755 1886 1959 2105 2302 2351 2408 2412 2517 2614 2700 2710 2656 2559 2688 2991 2759 2338 2425 1956 1426 996 674 676 753 683 603 509 458 875 1040 786 1830 1687 2008 2119 2092 1865
390 613 690 772 1035 1516 1815 1963 2035 2003 2061 2178 2310 2520 2660 2720 2735 2568 2468 2775 3047 2752 2699 2761 2496 1602 967 698 535 610 503 389 348 162 195 221 957 2049 2021 2197 1824 1700 1545
459 515 618 734 871 1213 1646 1848 1893 1867 1904 2093 2231 2337 2510 2706 2719 2440 2459 2673 2652 2577 2629 2726 2494 1966 1482 1087 826 669 535 448 355 160 210 745 904 2070 1884 2196 1875 1660 1778
511 577 762 973 936 945 1032 1129 1368 1557 1761 1966 2133 2306 2517 2573 2489 2332 2353 2457 2416 2390 2336 2357 2170 1614 1341 1158 988 842 729 649 437 233 211 386 1106 2081 1936 2437 2033 1711 1608
485 571 701 869 891 801 728 706 840 1083 1363 1618 1852 2074 2222 2176 2179 2179 2179 2185 2270 2282 2215 2127 2156 2098 2060 1690 1439 1356 1316 1270 936 476 521 471 1821 2201 2203 2089 2060 1956 1741
381 347 289 307 217 270 466 691 822 956 1077 1235 1418 1564 1596 1567 1698 1810 1751 1704 1717 1695 1718 1716 1700 1690 1695 1790 1798 1648 1467 776 723 801 621 608 1013 1982 2365 2110 1761 1723 1871
388 222 135 229 33 25 178 541 642 750 835 831 858 914 868 837 1135 1072 1344 1442 1602 1488 1455 1560 1574 1542 1490 1404 1353 1282 1236 780 819 895 839 834 1250 1535 2149 1760 1456 1404 1503
406 332 113 144 20 14 299 180 151 360 341 315 319 485 248 172 441 417 443 747 894 1094 1294 1358 1395 1099 1055 1023 1035 1173 1023 945 1046 1144 1088 1224 1097 1415 1273 1221 1151 1308 1291
712 548 175 236 36 31 84 7 25 71 132 210 275 133 40 93 140 37 76 66 245 449 616 779 928 1019 1127 990 1003 929 984 1178 674 506 603 795 1239 1389 1239 1148 1090 908 1104
827 911 667 433 160 69 12 69 100 118 17 52 117 15 0 0 0 0 0 0 0 0 0 1 389 457 145 182 492 861 534 66 61 452 69 501 863 1285 865 552 285 146 124
732 636 1032 776 461 178 82 92 80 31 0 0 0 0 0 0 0 0 0 0 0 0 0 0 0 0 0 7 8 12 0 0 0 11 10 1 46 304 282 188 153 190 32
725 396 250 344 27 0 0 0 0 0 0 0 0 0 0 0 0 0 0 0 0 0 0 0 0 0 0 0 0 0 0 0 0 0 0 0 0 7 12 14 14 13 23
510 298 80 1 0 0 0 0 0 0 0 0 0 0 0 0 0 0 0 0 0 0 0 0 0 0 0 0 0 0 0 0 0 0 0 1 1 3 4 2 4 4 15
54 91 0 0 0 0 0 0 0 0 0 0 0 0 0 0 0 0 0 0 0 0 0 0 0 0 0 0 0 0 0 0 0 0 0 0 0 1 3 7 5 6 7
0 0 0 0 0 0 0 0 0 0 0 0 0 0 0 0 0 0 0 0 0 0 0 0 0 0 0 0 0 0 0 0 0 0 0 0 0 0 0 3 3 2 2
0 0 0 0 0 0 0 0 0 0 0 0 0 0 0 0 0 0 0 0 0 0 0 0 0 0 0 0 0 0 0 0 0 0 0 0 0 1 0 0 0 0 2
0 0 0 0 0 0 0 0 0 0 0 0 0 0 0 0 0 0 0 0 0 0 0 0 0 0 0 0 0 0 0 0 0 0 0 0 0 0 0 0 0 0 0
0 0 0 0 0 0 0 0 0 0 0 0 0 0 0 0 0 0 0 0 0 0 0 0 0 0 0 0 0 0 0 0 0 0 0 0 0 0 0 0 0 0 0
0 0 0 0 0 0 0 0 0 0 0 0 0 0 0 0 0 0 0 0 0 0 0 0 0 0 0 0 0 0 0 0 0 0 0 0 0 0 0 0 0 0 0
0 0 0 0 0 0 0 0 0 0 0 0 0 0 0 0 0 0 0 0 0 0 0 0 0 0 0 0 0 0 0 0 0 0 0 0 0 0 0 0 0 0 0
0 0 0 0 0 0 0 0 0 0 0 0 0 0 0 0 0 0 0 0 0 0 0 0 0 0 0 0 0 0 0 0 0 0 0 0 0 0 0 0 0 0 0
0 0 0 0 0 0 0 0 0 0 0 0 0 0 0 0 0 0 0 0 0 0 0 0 0 0 0 0 0 0 0 0 0 0 0 0 0 0 0 0 0 0 0